• Em Portugal
  • Lista de países
  • Para 7 dias
  • Temperatura da água
  • Mapas de satélite
  • Mapa do tempo
  • Widgets de tempo
  • user-avatar
    Iniciar Sessão

    Previsão horária em Cofu

    Hoje, 24 Setembro, Segunda-feira

    Tempo Temperatura Precipitação Vento Pressão Humidade
    00:00 +18°C° 0 mm 1 m/s 674 mmHg 90%
    01:00 +18°C° 0 mm 1 m/s 674 mmHg 90%
    02:00 +18°C° 0 mm 1 m/s 674 mmHg 90%
    03:00 +18°C° 0 mm 1 m/s 674 mmHg 91%
    04:00 +18°C° 0 mm 1 m/s 674 mmHg 91%
    05:00 +16°C° 0 mm 1 m/s 674 mmHg 90%
    06:00 +16°C° 0 mm 1 m/s 674 mmHg 90%
    07:00 +20°C° 0 mm 1 m/s 674 mmHg 82%
    08:00 +22°C° 0 mm 1 m/s 675 mmHg 74%
    09:00 +23°C° 0 mm 1 m/s 675 mmHg 67%
    10:00 +24°C° 0 mm 1 m/s 675 mmHg 63%
    11:00 +25°C° 0 mm 1 m/s 675 mmHg 59%
    12:00 +26°C° 0 mm 2 m/s 675 mmHg 56%
    13:00 +25°C° 0.1 mm 2 m/s 675 mmHg 60%
    14:00 +24°C° 0.1 mm 2 m/s 675 mmHg 64%
    15:00 +22°C° 0 mm 1 m/s 674 mmHg 74%
    16:00 +21°C° 0 mm 1 m/s 674 mmHg 78%
    17:00 +20°C° 0 mm 1 m/s 674 mmHg 82%
    18:00 +20°C° 0 mm 1 m/s 674 mmHg 86%
    19:00 +19°C° 0 mm 1 m/s 674 mmHg 87%
    20:00 +19°C° 0 mm 1 m/s 674 mmHg 88%
    21:00 +16°C° 0 mm 0 m/s 674 mmHg 89%
    22:00 +16°C° 0 mm 0 m/s 674 mmHg 89%
    23:00 +16°C° 0 mm 0 m/s 674 mmHg 90%

    Amanhã, 25 Setembro, Terça-feira

    Tempo Temperatura Precipitação Vento Pressão Humidade
    00:00 +16°C° 0 mm 0 m/s 674 mmHg 90%
    01:00 +16°C° 0 mm 0 m/s 673 mmHg 89%
    02:00 +16°C° 0 mm 0 m/s 673 mmHg 89%
    03:00 +16°C° 0 mm 0 m/s 673 mmHg 89%
    04:00 +18°C° 0 mm 1 m/s 673 mmHg 88%
    05:00 +16°C° 0 mm 1 m/s 673 mmHg 87%
    06:00 +16°C° 0 mm 1 m/s 673 mmHg 86%
    07:00 +18°C° 0.3 mm 1 m/s 674 mmHg 83%
    08:00 +19°C° 0.3 mm 1 m/s 674 mmHg 81%
    09:00 +20°C° 0.3 mm 1 m/s 674 mmHg 78%
    10:00 +20°C° 0.6 mm 1 m/s 674 mmHg 76%
    11:00 +21°C° 0.6 mm 1 m/s 674 mmHg 75%
    12:00 +21°C° 0.6 mm 1 m/s 674 mmHg 73%
    13:00 +20°C° 1.4 mm 1 m/s 674 mmHg 77%
    14:00 +19°C° 1.4 mm 1 m/s 674 mmHg 81%
    15:00 +18°C° 1.4 mm 1 m/s 673 mmHg 85%
    16:00 +18°C° 0.4 mm 1 m/s 673 mmHg 86%
    17:00 +18°C° 0.4 mm 1 m/s 673 mmHg 87%
    18:00 +16°C° 0.4 mm 1 m/s 673 mmHg 88%
    19:00 +16°C° 0 mm 1 m/s 673 mmHg 89%
    20:00 +16°C° 0 mm 1 m/s 674 mmHg 89%
    21:00 +16°C° 0 mm 1 m/s 674 mmHg 90%
    22:00 +16°C° 0 mm 1 m/s 674 mmHg 89%
    23:00 +16°C° 0 mm 1 m/s 674 mmHg 89%

    Depois de amanhã, 26 Setembro, Quarta-feira

    Tempo Temperatura Precipitação Vento Pressão Humidade
    00:00 +15°C° 0 mm 1 m/s 674 mmHg 89%
    01:00 +15°C° 0 mm 1 m/s 673 mmHg 89%
    02:00 +15°C° 0 mm 1 m/s 673 mmHg 89%
    03:00 +15°C° 0 mm 1 m/s 673 mmHg 90%
    04:00 +15°C° 0 mm 1 m/s 673 mmHg 90%
    05:00 +15°C° 0 mm 1 m/s 673 mmHg 90%
    06:00 +15°C° 0 mm 2 m/s 673 mmHg 90%
    07:00 +16°C° 0 mm 2 m/s 674 mmHg 85%
    08:00 +17°C° 0 mm 2 m/s 674 mmHg 81%
    09:00 +18°C° 0 mm 2 m/s 675 mmHg 77%
    10:00 +19°C° 0 mm 2 m/s 675 mmHg 73%
    11:00 +20°C° 0 mm 2 m/s 675 mmHg 69%
    12:00 +20°C° 0 mm 2 m/s 675 mmHg 65%
    13:00 +20°C° 0 mm 2 m/s 674 mmHg 67%
    14:00 +20°C° 0 mm 2 m/s 674 mmHg 68%
    15:00 +19°C° 0 mm 2 m/s 674 mmHg 69%
    16:00 +18°C° 0.1 mm 2 m/s 674 mmHg 73%
    17:00 +17°C° 0.1 mm 2 m/s 673 mmHg 78%
    18:00 +16°C° 0.1 mm 2 m/s 673 mmHg 82%
    19:00 +16°C° 0.4 mm 2 m/s 673 mmHg 83%
    20:00 +16°C° 0.4 mm 2 m/s 673 mmHg 83%
    21:00 +15°C° 0.4 mm 2 m/s 674 mmHg 84%
    22:00 +15°C° 0.5 mm 2 m/s 673 mmHg 85%
    23:00 +15°C° 0.5 mm 2 m/s 673 mmHg 86%

    27 Setembro, Quinta-feira

    Tempo Temperatura Precipitação Vento Pressão Humidade
    00:00 +15°C° 0.5 mm 2 m/s 673 mmHg 87%
    01:00 +14°C° 1 mm 2 m/s 672 mmHg 88%
    02:00 +14°C° 1 mm 2 m/s 672 mmHg 88%
    03:00 +13°C° 1 mm 3 m/s 672 mmHg 89%
    04:00 +13°C° 1 mm 3 m/s 672 mmHg 89%
    05:00 +13°C° 1 mm 3 m/s 672 mmHg 89%
    06:00 +13°C° 1 mm 3 m/s 672 mmHg 89%
    07:00 +13°C° 1.1 mm 3 m/s 672 mmHg 89%
    08:00 +13°C° 1.1 mm 3 m/s 672 mmHg 88%
    09:00 +13°C° 1.1 mm 3 m/s 672 mmHg 88%
    10:00 +13°C° 1.4 mm 3 m/s 672 mmHg 88%
    11:00 +13°C° 1.4 mm 3 m/s 671 mmHg 88%
    12:00 +13°C° 1.4 mm 3 m/s 671 mmHg 87%
    13:00 +13°C° 2.7 mm 3 m/s 671 mmHg 88%
    14:00 +12°C° 2.7 mm 3 m/s 670 mmHg 89%
    15:00 +12°C° 2.7 mm 3 m/s 670 mmHg 89%
    16:00 +12°C° 2.5 mm 3 m/s 670 mmHg 89%
    17:00 +12°C° 2.5 mm 3 m/s 670 mmHg 89%
    18:00 +13°C° 2.5 mm 2 m/s 670 mmHg 89%
    19:00 +13°C° 1.8 mm 2 m/s 670 mmHg 89%
    20:00 +13°C° 1.8 mm 2 m/s 671 mmHg 89%
    21:00 +13°C° 1.8 mm 1 m/s 671 mmHg 89%
    22:00 +13°C° 0.6 mm 1 m/s 671 mmHg 89%
    23:00 +13°C° 0.6 mm 1 m/s 670 mmHg 89%

    28 Setembro, Sexta-feira

    Tempo Temperatura Precipitação Vento Pressão Humidade
    00:00 +13°C° 0.6 mm 1 m/s 670 mmHg 89%
    01:00 +13°C° 0.1 mm 1 m/s 670 mmHg 89%
    02:00 +12°C° 0.1 mm 1 m/s 670 mmHg 88%
    03:00 +12°C° 0.1 mm 1 m/s 670 mmHg 88%
    04:00 +12°C° 0 mm 1 m/s 670 mmHg 89%
    05:00 +11°C° 0 mm 1 m/s 670 mmHg 89%
    06:00 +11°C° 0 mm 1 m/s 670 mmHg 89%
    07:00 +13°C° 0 mm 1 m/s 671 mmHg 82%
    08:00 +16°C° 0 mm 1 m/s 672 mmHg 76%
    09:00 +19°C° 0 mm 1 m/s 673 mmHg 69%
    10:00 +20°C° 0 mm 1 m/s 673 mmHg 63%
    11:00 +21°C° 0 mm 1 m/s 673 mmHg 56%
    12:00 +23°C° 0 mm 2 m/s 673 mmHg 50%
    13:00 +21°C° 0 mm 2 m/s 673 mmHg 52%
    14:00 +21°C° 0 mm 2 m/s 673 mmHg 53%
    15:00 +21°C° 0 mm 2 m/s 673 mmHg 55%
    16:00 +19°C° 0 mm 2 m/s 673 mmHg 64%
    17:00 +17°C° 0 mm 2 m/s 673 mmHg 73%
    18:00 +15°C° 0 mm 1 m/s 673 mmHg 82%
    19:00 +15°C° 0 mm 1 m/s 673 mmHg 84%
    20:00 +14°C° 0 mm 1 m/s 674 mmHg 86%
    21:00 +14°C° 0 mm 1 m/s 674 mmHg 88%
    22:00 +14°C° 0 mm 1 m/s 674 mmHg 88%
    23:00 +14°C° 0 mm 1 m/s 673 mmHg 89%

    29 Setembro, Sábado

    Tempo Temperatura Precipitação Vento Pressão Humidade
    00:00 +13°C° 0 mm 1 m/s 673 mmHg 89%
    01:00 +13°C° 0 mm 1 m/s 673 mmHg 89%
    02:00 +13°C° 0 mm 1 m/s 673 mmHg 90%
    03:00 +13°C° 0 mm 1 m/s 673 mmHg 90%
    04:00 +12°C° 0 mm 1 m/s 673 mmHg 90%
    05:00 +12°C° 0 mm 1 m/s 673 mmHg 89%
    06:00 +12°C° 0 mm 1 m/s 673 mmHg 89%
    07:00 +14°C° 0 mm 1 m/s 674 mmHg 80%
    08:00 +18°C° 0 mm 1 m/s 675 mmHg 71%
    09:00 +20°C° 0 mm 1 m/s 675 mmHg 62%
    10:00 +20°C° 0 mm 2 m/s 675 mmHg 59%
    11:00 +21°C° 0 mm 2 m/s 675 mmHg 55%
    12:00 +23°C° 0 mm 2 m/s 674 mmHg 52%
    13:00 +21°C° 0 mm 2 m/s 674 mmHg 54%
    14:00 +21°C° 0 mm 2 m/s 674 mmHg 57%
    15:00 +21°C° 0 mm 2 m/s 673 mmHg 60%
    16:00 +19°C° 0 mm 2 m/s 673 mmHg 68%
    17:00 +18°C° 0 mm 2 m/s 673 mmHg 75%
    18:00 +16°C° 0 mm 1 m/s 673 mmHg 83%
    19:00 +16°C° 0.1 mm 1 m/s 673 mmHg 84%
    20:00 +16°C° 0.1 mm 1 m/s 673 mmHg 85%
    21:00 +16°C° 0.1 mm 1 m/s 673 mmHg 86%
    22:00 +16°C° 0.3 mm 1 m/s 673 mmHg 86%
    23:00 +16°C° 0.3 mm 1 m/s 672 mmHg 86%
    Mostrar mais